Regional Weather Roundup
Issued by NWS

Home | Current Version | Previous Version | Text Only | Print | Product List | Glossary Off
Versions: 1 2 3 4 5 6 7 8 9 10 11 12 13 14 15 16 17 18 19 20 21 22 23 24 25 26 27 28 29 30 31 32 33 34 35 36 37 38 39 40 41 42 43 44 45 46 47 48 49 50

000
ASUS43 KMPX 110401
RWRMN
WEATHER ROUNDUP FOR MINNESOTA
NATIONAL WEATHER SERVICE TWIN CITIES/CHANHASSEN MN
1100 PM CDT THU JUL 10 2014


NOTE: "FAIR" INDICATES FEW OR NO CLOUDS BELOW 12,000 FEET WITH NO
SIGNIFICANT WEATHER AND/OR OBSTRUCTIONS TO VISIBILITY. N/A MEANS
CURRENT SKY AND/OR WEATHER CONDITIONS ARE NOT AVAILABLE.

MNZ060>063-068>070-110500-
   Twin Cities Metro

CITY           SKY/WX    TMP DP  RH WIND       PRES   REMARKS
TWIN CITIES    MOCLDY    76  59  55 S14       29.99S
ST PAUL        MOCLDY    75  59  57 S13       30.00R
CRYSTAL        MOCLDY    78  58  49 S9G20     29.97R
BLAINE         CLOUDY    77  61  57 S12G17    29.98S
LAKEVILLE      PTCLDY    72  59  64 S6        30.00S
EDEN PRAIRIE   MOCLDY    75  59  57 S10       29.98R
SOUTH ST PAUL  MOCLDY    76  58  54 S9        30.00S
LAKE ELMO      FAIR      72  61  68 S10       30.02S
$$
MNZ001>005-007-008-013>017-022>024-027-028-110500-
   Northwest Minnesota

CITY           SKY/WX    TMP DP  RH WIND       PRES   REMARKS
BEMIDJI        DRIZZLE   67  65  91 S9        29.91F
HALLOCK        PTCLDY    70  64  83 S9        29.80S
ROSEAU         PTCLDY    70  61  73 SE6       29.85S
WARROAD        MOCLDY    70  63  78 SE10      29.86S
THIEF RVR FALL   N/A    N/A N/A N/A MISG        N/A
CROOKSTON      PTCLDY    70  63  78 S9        29.84F
FOSSTON        CLOUDY    66  63  88 SE12      29.89S
DETROIT LAKES  CLOUDY    68  66  94 CALM      29.91R
MOORHEAD       CLOUDY    72  72 100 SE7       29.85S
PARK RAPIDS    LGT RAIN  68  67  96 SE8       29.93R
$$
MNZ006-009>011-018-025>026-110500-
   North Central Minnesota

CITY           SKY/WX    TMP DP  RH WIND       PRES   REMARKS
BAUDETTE       CLOUDY    70  59  68 SE5       29.89S
FLAG ISLAND    PTCLDY    72  63  73 SE12      29.85F
INTL FALLS     MOCLDY    64  58  80 SE3       29.91F
LONGVILLE      RAIN      68  66  94 CALM      29.94S
GRAND RAPIDS   MOCLDY    70  63  78 SE7       29.93F
CRANE LAKE     MOCLDY    57  55  94 CALM      29.97S
ORR            MOCLDY    68  55  64 SE6       29.93S
COOK           MOCLDY    66  57  72 CALM      29.97S
$$
MNZ012-019>021-037-110500-
   Northeast Minnesota

CITY           SKY/WX    TMP DP  RH WIND       PRES   REMARKS
DULUTH         PTCLDY    61  52  72 SE8       30.00S
ELY            MOCLDY    64  54  68 S5        30.00R
HIBBING        MOCLDY    68  60  75 SE8       29.96S
EVELETH        CLOUDY    64  55  72 SE6       29.99S
DULUTH HARBOR  PTCLDY    55  52  88 NE7       30.01S
TWO HARBORS    CLOUDY    61  54  77 N5        29.99S
SILVER BAY     CLOUDY    55  55 100 CALM      29.99S
GRAND MARAIS     N/A     49  45  86 CALM      30.01F
G MARAIS ARPRT PTCLDY    55  46  71 CALM      30.06S
$$
MNZ029>031-032-039>041-046>048-054>057-064-110500-
   West Central Minnesota

CITY           SKY/WX    TMP DP  RH WIND       PRES   REMARKS
FERGUS FALLS   CLOUDY    72  66  83 SE9       29.87F
WHEATON        MOCLDY    72  64  78 SE12      29.86S
MORRIS         MOCLDY    73  66  78 S10G16    29.88S
ALEXANDRIA     CLOUDY    71  66  84 S10       29.93S
ELBOW LAKE     CLOUDY    72  66  83 SE12G17   29.87S
WADENA         RAIN      68  66  94 S7        29.92F
GLENWOOD       CLOUDY    73  64  73 S14       29.94S
APPLETON       MOCLDY    75  66  73 S10       29.88S
BENSON         MOCLDY    73  64  73 S12G17    29.90S
ORTONVILLE     CLOUDY    73  66  78 SE9       29.87S
MADISON        CLOUDY    75  66  73 S8        29.89S
WILLMAR        FAIR      75  63  64 SE12G20   29.94S
$$
MNZ033>034-036-042>043-049>051-058-059-110500-
   Central Minnesota

CITY           SKY/WX    TMP DP  RH WIND       PRES   REMARKS
ST CLOUD       CLOUDY    77  61  57 S9        29.94S
SAUK CENTRE    RAIN      70  65  84 S9        29.94R
PAYNESVILLE    CLOUDY    72  62  69 SE9       29.95R
AITKIN         LGT RAIN  75  64  69 S9        29.93S
PINE RIVER     RAIN      70  64  83 CALM      29.97R
BRAINERD       LGT RAIN  74  63  68 S7        29.94S
STAPLES        RAIN      70  64  83 CALM      29.94R
LONG PRAIRIE   MOCLDY    68  64  88 SE9       29.94R
LITTLE FALLS   LGT RAIN  70  63  78 SE7       29.94R
LITCHFIELD     CLOUDY    75  63  64 S12       29.96R
BUFFALO        CLOUDY    76  59  55 S8G16     29.98R
MAPLE LAKE     CLOUDY    76  63  63 S7        29.97S
$$
MNZ037-044-045-052-053-110500-
   East Central Minnesota

CITY           SKY/WX    TMP DP  RH WIND       PRES   REMARKS
PRINCETON      CLOUDY    75  61  60 SE9       29.97S
MORA           CLOUDY    72  59  64 CALM      29.99S
CAMBRIDGE      CLOUDY    79  61  53 SE7       29.96R
RUSH CITY      CLOUDY    73  61  66 S5        29.99R
MOOSE LAKE     MOCLDY    72  63  73 CALM      29.96S
HINCKLEY       MOCLDY    73  63  68 SE8       29.97F
CLOQUET        MOCLDY    59  54  82 E5        30.00R
MCGREGOR       CLOUDY    72  63  73 SE8       29.95F
$$
MNZ071>073-080-081-089-090-097-098-110500-
   Southwest Minnesota

CITY           SKY/WX    TMP DP  RH WIND       PRES   REMARKS
MONTEVIDEO     CLOUDY    75  64  69 S13       29.91R
GRANITE FALLS  CLOUDY    75  64  67 SE14G20   29.93R
CANBY          CLOUDY    76  65  69 S8G20     29.91R
MARSHALL       CLOUDY    75  64  69 S22       29.91R
REDWOOD FALLS  CLOUDY    76  63  64 S15       29.93S
OLIVIA         LGT RAIN  73  64  73 S14       29.93S
PIPESTONE      CLOUDY    73  64  73 S20G28    29.93R
WINDOM         CLOUDY    73  63  68 S14G20    29.98R
WORTHINGTON    CLOUDY    72  64  78 S13G18    29.98S
JACKSON        CLOUDY    73  59  60 S16       29.99F
TRACY          CLOUDY    75  65  70 S13G21    29.94S
SLAYTON        CLOUDY    73  64  73 S18       29.96R
$$
MNZ065>067-074>077-082>085-091>093-110500-
   South Central Minnesota

CITY           SKY/WX    TMP DP  RH WIND       PRES   REMARKS
MANKATO        CLOUDY    73  57  56 S10G16    29.99S
NEW ULM        CLOUDY    73  61  64 S16       29.96F
ST JAMES       CLOUDY    75  57  53 S14G20    29.99S
FAIRMONT       CLOUDY    73  55  53 S15       30.00F
GLENCOE        LGT RAIN  77  58  52 S7        29.97R
FARIBAULT      PTCLDY    75  55  50 S12       30.02S
OWATONNA       PTCLDY    73  57  56 S9        30.03S
WASECA         DRIZZLE   72  54  53 S10       30.04S
ALBERT LEA     MOCLDY    73  57  56 S10       30.05R
$$
MNZ078>079-086>088-094>096-110500-
   Southeast Minnesota

CITY           SKY/WX    TMP DP  RH WIND       PRES   REMARKS
ROCHESTER      CLEAR     68  59  73 S10       30.08R
RED WING       PTCLDY    75  57  53 S8        30.02R
STANTON        PTCLDY    73  59  62 S8        30.00S
DODGE CENTER   CLEAR     70  61  73 S10       30.06S
WINONA         PTCLDY    73  59  60 S8        30.05F
AUSTIN         CLEAR     72  57  60 S6        30.06S
PRESTON        CLEAR     67  60  78 S7        30.09S
$$
ABBREVIATIONS USED IN REMARKS
   TC - TEMPERATURES IN CELSIUS
  WCI - WIND CHILL INDEX
   HX - HEAT INDEX
  VSB - VISIBILITY
$$



USA.gov is the U.S. government's official web portal to all federal, state and local government web resources and services.